Location: ?
(35.4064°N, 139.3593°E)
Time: 14:49:22
(UTC+00:00)

Cosmos 2297 - Pass Details

Date: 18 April 2024
Orbit: 834 x 859 km, 71.0° (Epoch: 18 May)

Event Time Altitude Azimuth Distance (km) Brightness Sun altitude
Rises 19:13:49 0° 332° (NNW) 3,438 6.8 -10.8°
Reaches altitude 10° 19:16:21 10° 327° (NNW) 2,498 6.1 -10.3°
Maximum altitude 19:21:52 50° 254° (WSW) 1,081 3.9 -9.2°
Drops below altitude 10° 19:27:21 10° 180° (S) 2,481 5.9 -8.2°
Sets 19:29:52 0° 175° (S) 3,411 6.7 -7.7°
